Terug naar catalogus

CZ-3 DEB

LostHEO
NORAD 29446·DEBRIS·🇨🇳 China

Gelanceerd Apr 8, 1984 vanaf Xichang Satellite Launch Center

Loading…

Volgende Passages (komende 24 uur)

TLE

VerouderdSource: Space-Track

Epoch: Jul 21, 2026, 11:24 UTC

1 29446U 84035E   26202.47559541  .00000136  00000-0  14689-3 0  9998
2 29446  30.3334 170.7533 6837881 244.6747  32.3099  2.76785884  6809

Volg CZ-3 DEB in realtime met AllMySat

Download on the App Store